Year,Month,Day,Hour,Minute,Value (Times are PST for temperature in C)
2011,07,06,00,00,16.30
2011,07,06,00,01,16.30
2011,07,06,00,02,16.30
2011,07,06,00,03,16.40
2011,07,06,00,04,16.40
2011,07,06,00,05,16.40
2011,07,06,00,06,16.40
2011,07,06,00,07,16.40
2011,07,06,00,08,16.40
2011,07,06,00,09,16.40
2011,07,06,00,10,16.40
2011,07,06,00,11,16.40
2011,07,06,00,12,16.40
2011,07,06,00,13,16.40
2011,07,06,00,14,16.40
2011,07,06,00,15,16.40
2011,07,06,00,16,16.40
2011,07,06,00,17,16.40
2011,07,06,00,18,16.40
2011,07,06,00,19,16.40
2011,07,06,00,20,16.40
2011,07,06,00,21,16.40
2011,07,06,00,22,16.40
2011,07,06,00,23,16.40
2011,07,06,00,24,16.40
2011,07,06,00,25,16.30
2011,07,06,00,26,16.30
2011,07,06,00,27,16.30
2011,07,06,00,28,16.30
2011,07,06,00,29,16.30
2011,07,06,00,30,16.20
2011,07,06,00,31,16.20
2011,07,06,00,32,16.20
2011,07,06,00,33,16.10
2011,07,06,00,34,16.10
2011,07,06,00,35,16.10
2011,07,06,00,36,16.00
2011,07,06,00,37,16.00
2011,07,06,00,38,16.00
2011,07,06,00,39,15.90
2011,07,06,00,40,15.90
2011,07,06,00,41,15.90
2011,07,06,00,42,15.80
2011,07,06,00,43,15.80
2011,07,06,00,44,15.80
2011,07,06,00,45,15.80
2011,07,06,00,46,15.80
2011,07,06,00,47,15.80
2011,07,06,00,48,15.80
2011,07,06,00,49,15.80
2011,07,06,00,50,15.90
2011,07,06,00,51,15.90
2011,07,06,00,52,15.90
2011,07,06,00,53,16.00
2011,07,06,00,54,16.00
2011,07,06,00,55,16.00
2011,07,06,00,56,16.10
2011,07,06,00,57,16.10
2011,07,06,00,58,16.20
2011,07,06,00,59,16.20
2011,07,06,01,00,16.30
2011,07,06,01,01,16.40
2011,07,06,01,02,16.40
2011,07,06,01,03,16.50
2011,07,06,01,04,16.60
2011,07,06,01,05,16.60
2011,07,06,01,06,16.60
2011,07,06,01,07,16.70
2011,07,06,01,08,16.70
2011,07,06,01,09,16.70
2011,07,06,01,10,16.70
2011,07,06,01,11,16.70
2011,07,06,01,12,16.70
2011,07,06,01,13,16.70
2011,07,06,01,14,16.70
2011,07,06,01,15,16.80
2011,07,06,01,16,16.80
2011,07,06,01,17,16.80
2011,07,06,01,18,16.80
2011,07,06,01,19,16.80
2011,07,06,01,20,16.80
2011,07,06,01,21,16.90
2011,07,06,01,22,16.80
2011,07,06,01,23,16.80
2011,07,06,01,24,16.80
2011,07,06,01,25,16.90
2011,07,06,01,26,16.90
2011,07,06,01,27,16.90
2011,07,06,01,28,16.90
2011,07,06,01,29,16.90
2011,07,06,01,30,16.90
2011,07,06,01,31,17.00
2011,07,06,01,32,17.00
2011,07,06,01,33,17.00
2011,07,06,01,34,17.00
2011,07,06,01,35,17.00
2011,07,06,01,36,17.00
2011,07,06,01,37,17.00
2011,07,06,01,38,17.00
2011,07,06,01,39,17.00
2011,07,06,01,40,17.00
2011,07,06,01,41,17.00
2011,07,06,01,42,17.00
2011,07,06,01,43,17.00
2011,07,06,01,44,17.00
2011,07,06,01,45,17.00
2011,07,06,01,46,17.00
2011,07,06,01,47,16.90
2011,07,06,01,48,16.90
2011,07,06,01,49,16.90
2011,07,06,01,50,16.90
2011,07,06,01,51,16.80
2011,07,06,01,52,16.80
2011,07,06,01,53,16.70
2011,07,06,01,54,16.70
2011,07,06,01,55,16.60
2011,07,06,01,56,16.50
2011,07,06,01,57,16.40
2011,07,06,01,58,16.40
2011,07,06,01,59,16.30
2011,07,06,02,00,16.20
2011,07,06,02,01,16.20
2011,07,06,02,02,16.10
2011,07,06,02,03,16.10
2011,07,06,02,04,16.10
2011,07,06,02,05,16.10
2011,07,06,02,06,16.10
2011,07,06,02,07,16.10
2011,07,06,02,08,16.10
2011,07,06,02,09,16.10
2011,07,06,02,10,16.10
2011,07,06,02,11,16.20
2011,07,06,02,12,16.20
2011,07,06,02,13,16.20
2011,07,06,02,14,16.20
2011,07,06,02,15,16.20
2011,07,06,02,16,16.20
2011,07,06,02,17,16.20
2011,07,06,02,18,16.30
2011,07,06,02,19,16.30
2011,07,06,02,20,16.30
2011,07,06,02,21,16.30
2011,07,06,02,22,16.30
2011,07,06,02,23,16.30
2011,07,06,02,24,16.30
2011,07,06,02,25,16.30
2011,07,06,02,26,16.30
2011,07,06,02,27,16.30
2011,07,06,02,28,16.30
2011,07,06,02,29,16.30
2011,07,06,02,30,16.30
2011,07,06,02,31,16.30
2011,07,06,02,32,16.30
2011,07,06,02,33,16.30
2011,07,06,02,34,16.30
2011,07,06,02,35,16.30
2011,07,06,02,36,16.20
2011,07,06,02,37,16.20
2011,07,06,02,38,16.20
2011,07,06,02,39,16.10
2011,07,06,02,40,16.10
2011,07,06,02,41,16.10
2011,07,06,02,42,16.00
2011,07,06,02,43,16.00
2011,07,06,02,44,15.90
2011,07,06,02,45,15.90
2011,07,06,02,46,15.80
2011,07,06,02,47,15.80
2011,07,06,02,48,15.70
2011,07,06,02,49,15.70
2011,07,06,02,50,15.60
2011,07,06,02,51,15.60
2011,07,06,02,52,15.50
2011,07,06,02,53,15.50
2011,07,06,02,54,15.40
2011,07,06,02,55,15.30
2011,07,06,02,56,15.30
2011,07,06,02,57,15.20
2011,07,06,02,58,15.20
2011,07,06,02,59,15.10
2011,07,06,03,00,15.00
2011,07,06,03,01,15.00
2011,07,06,03,02,15.00
2011,07,06,03,03,15.00
2011,07,06,03,04,15.00
2011,07,06,03,05,15.00
2011,07,06,03,06,15.00
2011,07,06,03,07,15.10
2011,07,06,03,08,15.10
2011,07,06,03,09,15.20
2011,07,06,03,10,15.20
2011,07,06,03,11,15.30
2011,07,06,03,12,15.30
2011,07,06,03,13,15.40
2011,07,06,03,14,15.40
2011,07,06,03,15,15.50
2011,07,06,03,16,15.50
2011,07,06,03,17,15.60
2011,07,06,03,18,15.60
2011,07,06,03,19,15.60
2011,07,06,03,20,15.70
2011,07,06,03,21,15.70
2011,07,06,03,22,15.70
2011,07,06,03,23,15.70
2011,07,06,03,24,15.70
2011,07,06,03,25,15.60
2011,07,06,03,26,15.70
2011,07,06,03,27,15.60
2011,07,06,03,28,15.60
2011,07,06,03,29,15.60
2011,07,06,03,30,15.60
2011,07,06,03,31,15.60
2011,07,06,03,32,15.60
2011,07,06,03,33,15.50
2011,07,06,03,34,15.50
2011,07,06,03,35,15.50
2011,07,06,03,36,15.40
2011,07,06,03,37,15.40
2011,07,06,03,38,15.40
2011,07,06,03,39,15.30
2011,07,06,03,40,15.30
2011,07,06,03,41,15.30
2011,07,06,03,42,15.20
2011,07,06,03,43,15.20
2011,07,06,03,44,15.20
2011,07,06,03,45,15.10
2011,07,06,03,46,15.10
2011,07,06,03,47,15.00
2011,07,06,03,48,15.00
2011,07,06,03,49,15.00
2011,07,06,03,50,15.00
2011,07,06,03,51,15.00
2011,07,06,03,52,15.00
2011,07,06,03,53,15.00
2011,07,06,03,54,15.00
2011,07,06,03,55,15.00
2011,07,06,03,56,15.00
2011,07,06,03,57,15.00
2011,07,06,03,58,15.00
2011,07,06,03,59,15.00
2011,07,06,04,00,15.00
2011,07,06,04,01,15.00
2011,07,06,04,02,15.00
2011,07,06,04,03,15.10
2011,07,06,04,04,15.10
2011,07,06,04,05,15.10
2011,07,06,04,06,15.10
2011,07,06,04,07,15.10
2011,07,06,04,08,15.20
2011,07,06,04,09,15.20
2011,07,06,04,10,15.20
2011,07,06,04,11,15.30
2011,07,06,04,12,15.30
2011,07,06,04,13,15.40
2011,07,06,04,14,15.40
2011,07,06,04,15,15.40
2011,07,06,04,16,15.50
2011,07,06,04,17,15.60
2011,07,06,04,18,15.60
2011,07,06,04,19,15.70
2011,07,06,04,20,15.70
2011,07,06,04,21,15.80
2011,07,06,04,22,15.80
2011,07,06,04,23,15.80
2011,07,06,04,24,15.90
2011,07,06,04,25,15.90
2011,07,06,04,26,15.90
2011,07,06,04,27,15.90
2011,07,06,04,28,15.90
2011,07,06,04,29,16.00
2011,07,06,04,30,16.00
2011,07,06,04,31,16.00
2011,07,06,04,32,16.00
2011,07,06,04,33,16.00
2011,07,06,04,34,16.00
2011,07,06,04,35,16.10
2011,07,06,04,36,16.10
2011,07,06,04,37,16.00
2011,07,06,04,38,16.00
2011,07,06,04,39,16.00
2011,07,06,04,40,16.00
2011,07,06,04,41,15.90
2011,07,06,04,42,15.90
2011,07,06,04,43,15.80
2011,07,06,04,44,15.80
2011,07,06,04,45,15.70
2011,07,06,04,46,15.70
2011,07,06,04,47,15.60
2011,07,06,04,48,15.60
2011,07,06,04,49,15.50
2011,07,06,04,50,15.40
2011,07,06,04,51,15.30
2011,07,06,04,52,15.30
2011,07,06,04,53,15.20
2011,07,06,04,54,15.10
2011,07,06,04,55,15.00
2011,07,06,04,56,15.00
2011,07,06,04,57,15.00
2011,07,06,04,58,15.00
2011,07,06,04,59,15.00
2011,07,06,05,00,15.00
2011,07,06,05,01,14.90
2011,07,06,05,02,14.90
2011,07,06,05,03,14.80
2011,07,06,05,04,14.80
2011,07,06,05,05,14.80
2011,07,06,05,06,14.80
2011,07,06,05,07,14.80
2011,07,06,05,08,14.80
2011,07,06,05,09,14.80
2011,07,06,05,10,14.80
2011,07,06,05,11,14.80
2011,07,06,05,12,14.80
2011,07,06,05,13,14.80
2011,07,06,05,14,14.80
2011,07,06,05,15,14.80
2011,07,06,05,16,14.80
2011,07,06,05,17,14.80
2011,07,06,05,18,14.90
2011,07,06,05,19,14.90
2011,07,06,05,20,15.00
2011,07,06,05,21,15.00
2011,07,06,05,22,15.00
2011,07,06,05,23,15.00
2011,07,06,05,24,15.10
2011,07,06,05,25,15.20
2011,07,06,05,26,15.30
2011,07,06,05,27,15.30
2011,07,06,05,28,15.40
2011,07,06,05,29,15.40
2011,07,06,05,30,15.50
2011,07,06,05,31,15.50
2011,07,06,05,32,15.60
2011,07,06,05,33,15.60
2011,07,06,05,34,15.70
2011,07,06,05,35,15.70
2011,07,06,05,36,15.70
2011,07,06,05,37,15.80
2011,07,06,05,38,15.80
2011,07,06,05,39,15.80
2011,07,06,05,40,15.90
2011,07,06,05,41,15.90
2011,07,06,05,42,15.90
2011,07,06,05,43,16.00
2011,07,06,05,44,16.00
2011,07,06,05,45,16.00
2011,07,06,05,46,16.10
2011,07,06,05,47,16.10
2011,07,06,05,48,16.20
2011,07,06,05,49,16.20
2011,07,06,05,50,16.20
2011,07,06,05,51,16.20
2011,07,06,05,52,16.20
2011,07,06,05,53,16.20
2011,07,06,05,54,16.30
2011,07,06,05,55,16.30
2011,07,06,05,56,16.30
2011,07,06,05,57,16.30
2011,07,06,05,58,16.30
2011,07,06,05,59,16.30
2011,07,06,06,00,16.40
2011,07,06,06,01,16.40
2011,07,06,06,02,16.40
2011,07,06,06,03,16.40
2011,07,06,06,04,16.40
2011,07,06,06,05,16.40
2011,07,06,06,06,16.40
2011,07,06,06,07,16.50
2011,07,06,06,08,16.50
2011,07,06,06,09,16.50
2011,07,06,06,10,16.50
2011,07,06,06,11,16.50
2011,07,06,06,12,16.50
2011,07,06,06,13,16.50
2011,07,06,06,14,16.40
2011,07,06,06,15,16.30
2011,07,06,06,16,16.20
2011,07,06,06,17,16.10
2011,07,06,06,18,16.10
2011,07,06,06,19,16.00
2011,07,06,06,20,15.90
2011,07,06,06,21,15.80
2011,07,06,06,22,15.70
2011,07,06,06,23,15.70
2011,07,06,06,24,15.60
2011,07,06,06,25,15.50
2011,07,06,06,26,15.50
2011,07,06,06,27,15.40
2011,07,06,06,28,15.40
2011,07,06,06,29,15.30
2011,07,06,06,30,15.30
2011,07,06,06,31,15.30
2011,07,06,06,32,15.30
2011,07,06,06,33,15.30
2011,07,06,06,34,15.30
2011,07,06,06,35,15.20
2011,07,06,06,36,15.20
2011,07,06,06,37,15.20
2011,07,06,06,38,15.20
2011,07,06,06,39,15.20
2011,07,06,06,40,15.20
2011,07,06,06,41,15.20
2011,07,06,06,42,15.20
2011,07,06,06,43,15.20
2011,07,06,06,44,15.20
2011,07,06,06,45,15.20
2011,07,06,06,46,15.20
2011,07,06,06,47,15.20
2011,07,06,06,48,15.20
2011,07,06,06,49,15.20
2011,07,06,06,50,15.30
2011,07,06,06,51,15.30
2011,07,06,06,52,15.30
2011,07,06,06,53,15.30
2011,07,06,06,54,15.30
2011,07,06,06,55,15.30
2011,07,06,06,56,15.40
2011,07,06,06,57,15.40
2011,07,06,06,58,15.40
2011,07,06,06,59,15.40
2011,07,06,07,00,15.50
2011,07,06,07,01,15.50
2011,07,06,07,02,15.60
2011,07,06,07,03,15.60
2011,07,06,07,04,15.60
2011,07,06,07,05,15.70
2011,07,06,07,06,15.80
2011,07,06,07,07,15.80
2011,07,06,07,08,15.90
2011,07,06,07,09,16.00
2011,07,06,07,10,16.10
2011,07,06,07,11,16.10
2011,07,06,07,12,16.20
2011,07,06,07,13,16.20
2011,07,06,07,14,16.30
2011,07,06,07,15,16.30
2011,07,06,07,16,16.30
2011,07,06,07,17,16.40
2011,07,06,07,18,16.50
2011,07,06,07,19,16.60
2011,07,06,07,20,16.60
2011,07,06,07,21,16.70
2011,07,06,07,22,16.80
2011,07,06,07,23,16.80
2011,07,06,07,24,16.90
2011,07,06,07,25,17.00
2011,07,06,07,26,17.10
2011,07,06,07,27,17.10
2011,07,06,07,28,17.20
2011,07,06,07,29,17.30
2011,07,06,07,30,17.30
2011,07,06,07,31,17.40
2011,07,06,07,32,17.40
2011,07,06,07,33,17.50
2011,07,06,07,34,17.60
2011,07,06,07,35,17.60
2011,07,06,07,36,17.70
2011,07,06,07,37,17.70
2011,07,06,07,38,17.80
2011,07,06,07,39,17.80
2011,07,06,07,40,17.90
2011,07,06,07,41,17.90
2011,07,06,07,42,17.90
2011,07,06,07,43,18.00
2011,07,06,07,44,18.10
2011,07,06,07,45,18.10
2011,07,06,07,46,18.20
2011,07,06,07,47,18.20
2011,07,06,07,48,18.20
2011,07,06,07,49,18.30
2011,07,06,07,50,18.30
2011,07,06,07,51,18.40
2011,07,06,07,52,18.40
2011,07,06,07,53,18.50
2011,07,06,07,54,18.50
2011,07,06,07,55,18.50
2011,07,06,07,56,18.60
2011,07,06,07,57,18.60
2011,07,06,07,58,18.70
2011,07,06,07,59,18.70
2011,07,06,08,00,18.60
2011,07,06,08,01,18.60
2011,07,06,08,02,18.60
2011,07,06,08,03,18.50
2011,07,06,08,04,18.50
2011,07,06,08,05,18.50
2011,07,06,08,06,18.50
2011,07,06,08,07,18.60
2011,07,06,08,08,18.60
2011,07,06,08,09,18.60
2011,07,06,08,10,18.70
2011,07,06,08,11,18.70
2011,07,06,08,12,18.80
2011,07,06,08,13,18.80
2011,07,06,08,14,18.80
2011,07,06,08,15,18.80
2011,07,06,08,16,18.80
2011,07,06,08,17,18.80
2011,07,06,08,18,18.80
2011,07,06,08,19,18.70
2011,07,06,08,20,18.70
2011,07,06,08,21,18.70
2011,07,06,08,22,18.70
2011,07,06,08,23,18.70
2011,07,06,08,24,18.70
2011,07,06,08,25,18.70
2011,07,06,08,26,18.70
2011,07,06,08,27,18.70
2011,07,06,08,28,18.70
2011,07,06,08,29,18.70
2011,07,06,08,30,18.70
2011,07,06,08,31,18.60
2011,07,06,08,32,18.50
2011,07,06,08,33,18.50
2011,07,06,08,34,18.40
2011,07,06,08,35,18.40
2011,07,06,08,36,18.40
2011,07,06,08,37,18.50
2011,07,06,08,38,18.60
2011,07,06,08,39,18.60
2011,07,06,08,40,18.70
2011,07,06,08,41,18.80
2011,07,06,08,42,18.90
2011,07,06,08,43,19.00
2011,07,06,08,44,19.00
2011,07,06,08,45,19.10
2011,07,06,08,46,19.10
2011,07,06,08,47,19.10
2011,07,06,08,48,19.10
2011,07,06,08,49,19.10
2011,07,06,08,50,19.10
2011,07,06,08,51,19.10
2011,07,06,08,52,19.10
2011,07,06,08,53,19.00
2011,07,06,08,54,19.00
2011,07,06,08,55,18.90
2011,07,06,08,56,18.90
2011,07,06,08,57,18.80
2011,07,06,08,58,18.80
2011,07,06,08,59,18.70
2011,07,06,09,00,18.60
2011,07,06,09,01,18.60
2011,07,06,09,02,18.60
2011,07,06,09,03,18.60
2011,07,06,09,04,18.70
2011,07,06,09,05,18.70
2011,07,06,09,06,18.70
2011,07,06,09,07,18.70
2011,07,06,09,08,18.60
2011,07,06,09,09,18.60
2011,07,06,09,10,18.50
2011,07,06,09,11,18.40
2011,07,06,09,12,18.40
2011,07,06,09,13,18.40
2011,07,06,09,14,18.40
2011,07,06,09,15,18.40
2011,07,06,09,16,18.40
2011,07,06,09,17,18.40
2011,07,06,09,18,18.40
2011,07,06,09,19,18.40
2011,07,06,09,20,18.40
2011,07,06,09,21,18.40
2011,07,06,09,22,18.50
2011,07,06,09,23,18.50
2011,07,06,09,24,18.60
2011,07,06,09,25,18.60
2011,07,06,09,26,18.70
2011,07,06,09,27,18.80
2011,07,06,09,28,18.90
2011,07,06,09,29,18.90
2011,07,06,09,30,19.00
2011,07,06,09,31,19.10
2011,07,06,09,32,19.10
2011,07,06,09,33,19.20
2011,07,06,09,34,19.20
2011,07,06,09,35,19.20
2011,07,06,09,36,19.30
2011,07,06,09,37,19.30
2011,07,06,09,38,19.40
2011,07,06,09,39,19.40
2011,07,06,09,40,19.40
2011,07,06,09,41,19.30
2011,07,06,09,42,19.30
2011,07,06,09,43,19.30
2011,07,06,09,44,19.30
2011,07,06,09,45,19.30
2011,07,06,09,46,19.30
2011,07,06,09,47,19.30
2011,07,06,09,48,19.30
2011,07,06,09,49,19.30
2011,07,06,09,50,19.30
2011,07,06,09,51,19.30
2011,07,06,09,52,19.20
2011,07,06,09,53,19.20
2011,07,06,09,54,19.20
2011,07,06,09,55,19.20
2011,07,06,09,56,19.20
2011,07,06,09,57,19.20
2011,07,06,09,58,19.20
2011,07,06,09,59,19.20
2011,07,06,10,00,19.20
2011,07,06,10,01,19.30
2011,07,06,10,02,19.30
2011,07,06,10,03,19.30
2011,07,06,10,04,19.30
2011,07,06,10,05,19.30
2011,07,06,10,06,19.30
2011,07,06,10,07,19.30
2011,07,06,10,08,19.30
2011,07,06,10,09,19.30
2011,07,06,10,10,19.30
2011,07,06,10,11,19.30
2011,07,06,10,12,19.30
2011,07,06,10,13,19.40
2011,07,06,10,14,19.40
2011,07,06,10,15,19.30
2011,07,06,10,16,19.30
2011,07,06,10,17,19.30
2011,07,06,10,18,19.30
2011,07,06,10,19,19.20
2011,07,06,10,20,19.20
2011,07,06,10,21,19.20
2011,07,06,10,22,19.20
2011,07,06,10,23,19.20
2011,07,06,10,24,19.20
2011,07,06,10,25,19.30
2011,07,06,10,26,19.30
2011,07,06,10,27,19.40
2011,07,06,10,28,19.40
2011,07,06,10,29,19.50
2011,07,06,10,30,19.60
2011,07,06,10,31,19.60
2011,07,06,10,32,19.60
2011,07,06,10,33,19.60
2011,07,06,10,34,19.60
2011,07,06,10,35,19.70
2011,07,06,10,36,19.90
2011,07,06,10,37,20.00
2011,07,06,10,38,20.00
2011,07,06,10,39,20.10
2011,07,06,10,40,20.10
2011,07,06,10,41,20.10
2011,07,06,10,42,20.10
2011,07,06,10,43,20.20
2011,07,06,10,44,20.20
2011,07,06,10,45,20.20
2011,07,06,10,46,20.20
2011,07,06,10,47,20.20
2011,07,06,10,48,20.30
2011,07,06,10,49,20.30
2011,07,06,10,50,20.40
2011,07,06,10,51,20.40
2011,07,06,10,52,20.40
2011,07,06,10,53,20.30
2011,07,06,10,54,20.20
2011,07,06,10,55,20.10
2011,07,06,10,56,20.10
2011,07,06,10,57,20.10
2011,07,06,10,58,20.20
2011,07,06,10,59,20.40
2011,07,06,11,00,20.50
2011,07,06,11,01,20.60
2011,07,06,11,02,20.70
2011,07,06,11,03,20.80
2011,07,06,11,04,20.90
2011,07,06,11,05,20.90
2011,07,06,11,06,21.00
2011,07,06,11,07,21.10
2011,07,06,11,08,21.10
2011,07,06,11,09,21.10
2011,07,06,11,10,21.10
2011,07,06,11,11,21.10
2011,07,06,11,12,21.10
2011,07,06,11,13,21.10
2011,07,06,11,14,21.20
2011,07,06,11,15,21.20
2011,07,06,11,16,21.20
2011,07,06,11,17,21.20
2011,07,06,11,18,21.10
2011,07,06,11,19,20.90
2011,07,06,11,20,20.80
2011,07,06,11,21,20.50
2011,07,06,11,22,20.40
2011,07,06,11,23,20.30
2011,07,06,11,24,20.20
2011,07,06,11,25,20.10
2011,07,06,11,26,20.10
2011,07,06,11,27,20.00
2011,07,06,11,28,19.90
2011,07,06,11,29,19.80
2011,07,06,11,30,19.80
2011,07,06,11,31,19.90
2011,07,06,11,32,20.00
2011,07,06,11,33,20.10
2011,07,06,11,34,20.30
2011,07,06,11,35,20.40
2011,07,06,11,36,20.50
2011,07,06,11,37,20.60
2011,07,06,11,38,20.80
2011,07,06,11,39,20.90
2011,07,06,11,40,20.90
2011,07,06,11,41,20.90
2011,07,06,11,42,21.00
2011,07,06,11,43,21.10
2011,07,06,11,46,21.30
2011,07,06,11,47,21.30
2011,07,06,11,48,21.30
2011,07,06,11,49,21.30
2011,07,06,11,50,21.30
2011,07,06,11,51,21.30
2011,07,06,11,52,21.30
2011,07,06,11,53,21.30
2011,07,06,11,54,21.30
2011,07,06,11,55,21.20
2011,07,06,11,56,21.20
2011,07,06,11,57,21.20
2011,07,06,11,58,21.20
2011,07,06,11,59,21.20
2011,07,06,12,00,21.30
2011,07,06,12,01,21.30
2011,07,06,12,02,21.30
2011,07,06,12,03,21.40
2011,07,06,12,04,21.40
2011,07,06,12,05,21.50
2011,07,06,12,06,21.50
2011,07,06,12,07,21.60
2011,07,06,12,08,21.70
2011,07,06,12,09,21.80
2011,07,06,12,10,22.00
2011,07,06,12,11,22.10
2011,07,06,12,12,22.20
2011,07,06,12,13,22.20
2011,07,06,12,14,22.20
2011,07,06,12,15,22.20
2011,07,06,12,16,22.10
2011,07,06,12,17,22.10
2011,07,06,12,18,22.00
2011,07,06,12,19,22.00
2011,07,06,12,20,21.90
2011,07,06,12,21,21.80
2011,07,06,12,22,21.80
2011,07,06,12,23,21.80
2011,07,06,12,24,21.70
2011,07,06,12,25,21.70
2011,07,06,12,26,21.60
2011,07,06,12,27,21.50
2011,07,06,12,28,21.50
2011,07,06,12,29,21.50
2011,07,06,12,30,21.60
2011,07,06,12,31,21.70
2011,07,06,12,32,21.70
2011,07,06,12,33,21.70
2011,07,06,12,34,21.70
2011,07,06,12,35,21.70
2011,07,06,12,36,21.60
2011,07,06,12,37,21.40
2011,07,06,12,38,21.40
2011,07,06,12,39,21.30
2011,07,06,12,40,21.30
2011,07,06,12,41,21.40
2011,07,06,12,42,21.40
2011,07,06,12,43,21.50
2011,07,06,12,44,21.60
2011,07,06,12,45,21.60
2011,07,06,12,46,21.60
2011,07,06,12,47,21.60
2011,07,06,12,48,21.60
2011,07,06,12,49,21.50
2011,07,06,12,50,21.40
2011,07,06,12,51,21.40
2011,07,06,12,52,21.40
2011,07,06,12,53,21.30
2011,07,06,12,54,21.30
2011,07,06,12,55,21.30
2011,07,06,12,56,21.30
2011,07,06,12,57,21.40
2011,07,06,12,58,21.30
2011,07,06,12,59,21.40
2011,07,06,13,00,21.40
2011,07,06,13,01,21.40
2011,07,06,13,02,21.40
2011,07,06,13,03,21.30
2011,07,06,13,04,21.20
2011,07,06,13,05,21.20
2011,07,06,13,06,21.30
2011,07,06,13,07,21.40
2011,07,06,13,08,21.40
2011,07,06,13,09,21.50
2011,07,06,13,10,21.50
2011,07,06,13,11,21.60
2011,07,06,13,12,21.60
2011,07,06,13,13,21.80
2011,07,06,13,14,21.80
2011,07,06,13,15,21.90
2011,07,06,13,16,22.00
2011,07,06,13,17,22.00
2011,07,06,13,18,21.90
2011,07,06,13,19,21.90
2011,07,06,13,20,21.90
2011,07,06,13,21,21.90
2011,07,06,13,22,21.90
2011,07,06,13,23,21.90
2011,07,06,13,24,22.00
2011,07,06,13,25,22.00
2011,07,06,13,26,22.00
2011,07,06,13,27,22.10
2011,07,06,13,28,22.00
2011,07,06,13,29,22.00
2011,07,06,13,30,22.00
2011,07,06,13,31,22.10
2011,07,06,13,32,22.10
2011,07,06,13,33,22.20
2011,07,06,13,34,22.30
2011,07,06,13,35,22.40
2011,07,06,13,36,22.50
2011,07,06,13,37,22.60
2011,07,06,13,38,22.60
2011,07,06,13,39,22.60
2011,07,06,13,40,22.60
2011,07,06,13,41,22.60
2011,07,06,13,42,22.60
2011,07,06,13,43,22.60
2011,07,06,13,44,22.70
2011,07,06,13,45,22.70
2011,07,06,13,46,22.80
2011,07,06,13,47,22.90
2011,07,06,13,48,22.90
2011,07,06,13,49,23.00
2011,07,06,13,50,23.00
2011,07,06,13,51,23.10
2011,07,06,13,52,23.10
2011,07,06,13,53,23.10
2011,07,06,13,54,23.20
2011,07,06,13,55,23.20
2011,07,06,13,56,23.20
2011,07,06,13,57,23.30
2011,07,06,13,58,23.30
2011,07,06,13,59,23.20
2011,07,06,14,00,23.00
2011,07,06,14,01,22.90
2011,07,06,14,02,22.90
2011,07,06,14,03,22.90
2011,07,06,14,04,23.00
2011,07,06,14,05,23.00
2011,07,06,14,06,23.10
2011,07,06,14,07,23.10
2011,07,06,14,08,23.10
2011,07,06,14,09,23.10
2011,07,06,14,10,23.10
2011,07,06,14,11,23.20
2011,07,06,14,12,23.20
2011,07,06,14,13,23.20
2011,07,06,14,14,23.20
2011,07,06,14,15,23.20
2011,07,06,14,16,23.10
2011,07,06,14,17,23.20
2011,07,06,14,18,23.20
2011,07,06,14,19,23.10
2011,07,06,14,20,23.10
2011,07,06,14,21,23.10
2011,07,06,14,22,23.00
2011,07,06,14,23,23.00
2011,07,06,14,24,23.00
2011,07,06,14,25,23.00
2011,07,06,14,26,23.10
2011,07,06,14,27,23.10
2011,07,06,14,28,23.10
2011,07,06,14,29,23.20
2011,07,06,14,30,23.20
2011,07,06,14,31,23.20
2011,07,06,14,32,23.20
2011,07,06,14,33,23.20
2011,07,06,14,34,23.20
2011,07,06,14,35,23.10
2011,07,06,14,36,23.10
2011,07,06,14,37,23.20
2011,07,06,14,38,23.20
2011,07,06,14,39,23.30
2011,07,06,14,40,23.30
2011,07,06,14,41,23.30
2011,07,06,14,42,23.40
2011,07,06,14,43,23.40
2011,07,06,14,44,23.40
2011,07,06,14,45,23.30
2011,07,06,14,46,23.20
2011,07,06,14,47,23.10
2011,07,06,14,48,23.10
2011,07,06,14,49,23.10
2011,07,06,14,50,23.20
2011,07,06,14,51,23.30
2011,07,06,14,52,23.30
2011,07,06,14,53,23.40
2011,07,06,14,54,23.50
2011,07,06,14,55,23.60
2011,07,06,14,56,23.70
2011,07,06,14,57,23.70
2011,07,06,14,58,23.80
2011,07,06,14,59,23.80
2011,07,06,15,00,23.70
2011,07,06,15,01,23.70
2011,07,06,15,02,23.60
2011,07,06,15,03,23.70
2011,07,06,15,04,23.70
2011,07,06,15,05,23.80
2011,07,06,15,06,23.80
2011,07,06,15,07,23.90
2011,07,06,15,08,24.00
2011,07,06,15,09,24.10
2011,07,06,15,10,24.10
2011,07,06,15,11,24.10
2011,07,06,15,12,24.10
2011,07,06,15,13,24.10
2011,07,06,15,14,24.00
2011,07,06,15,15,24.00
2011,07,06,15,16,23.80
2011,07,06,15,17,23.70
2011,07,06,15,18,23.60
2011,07,06,15,19,23.60
2011,07,06,15,20,23.50
2011,07,06,15,21,23.60
2011,07,06,15,22,23.60
2011,07,06,15,23,23.50
2011,07,06,15,24,23.50
2011,07,06,15,25,23.50
2011,07,06,15,26,23.50
2011,07,06,15,27,23.50
2011,07,06,15,28,23.60
2011,07,06,15,29,23.60
2011,07,06,15,30,23.70
2011,07,06,15,31,23.80
2011,07,06,15,32,23.90
2011,07,06,15,33,23.90
2011,07,06,15,34,24.00
2011,07,06,15,35,24.00
2011,07,06,15,36,24.10
2011,07,06,15,37,24.10
2011,07,06,15,38,24.10
2011,07,06,15,39,24.10
2011,07,06,15,40,24.20
2011,07,06,15,41,24.20
2011,07,06,15,42,24.20
2011,07,06,15,43,24.20
2011,07,06,15,44,24.30
2011,07,06,15,45,24.30
2011,07,06,15,46,24.40
2011,07,06,15,47,24.40
2011,07,06,15,48,24.50
2011,07,06,15,49,24.60
2011,07,06,15,50,24.60
2011,07,06,15,51,24.60
2011,07,06,15,52,24.60
2011,07,06,15,53,24.70
2011,07,06,15,54,24.70
2011,07,06,15,55,24.70
2011,07,06,15,56,24.80
2011,07,06,15,57,24.80
2011,07,06,15,58,24.80
2011,07,06,15,59,24.90
2011,07,06,16,00,25.00
2011,07,06,16,01,25.00
2011,07,06,16,02,25.10
2011,07,06,16,03,25.10
2011,07,06,16,04,25.10
2011,07,06,16,05,25.20
2011,07,06,16,06,25.20
2011,07,06,16,07,25.30
2011,07,06,16,08,25.30
2011,07,06,16,09,25.40
2011,07,06,16,10,25.40
2011,07,06,16,11,25.50
2011,07,06,16,12,25.60
2011,07,06,16,13,25.70
2011,07,06,16,14,25.80
2011,07,06,16,15,25.80
2011,07,06,16,16,25.80
2011,07,06,16,17,25.80
2011,07,06,16,18,25.80
2011,07,06,16,19,25.80
2011,07,06,16,20,25.80
2011,07,06,16,21,25.70
2011,07,06,16,22,25.70
2011,07,06,16,23,25.60
2011,07,06,16,24,25.60
2011,07,06,16,25,25.40
2011,07,06,16,26,25.30
2011,07,06,16,27,25.30
2011,07,06,16,28,25.20
2011,07,06,16,29,25.20
2011,07,06,16,30,25.30
2011,07,06,16,31,25.30
2011,07,06,16,32,25.30
2011,07,06,16,33,25.30
2011,07,06,16,34,25.20
2011,07,06,16,35,25.20
2011,07,06,16,36,25.00
2011,07,06,16,37,24.90
2011,07,06,16,38,24.70
2011,07,06,16,39,24.60
2011,07,06,16,40,24.50
2011,07,06,16,41,24.40
2011,07,06,16,42,24.30
2011,07,06,16,43,24.30
2011,07,06,16,44,24.20
2011,07,06,16,45,24.20
2011,07,06,16,46,24.20
2011,07,06,16,47,24.20
2011,07,06,16,48,24.10
2011,07,06,16,49,24.10
2011,07,06,16,50,24.10
2011,07,06,16,51,24.10
2011,07,06,16,52,24.10
2011,07,06,16,53,24.10
2011,07,06,16,54,24.00
2011,07,06,16,55,23.90
2011,07,06,16,56,23.90
2011,07,06,16,57,23.90
2011,07,06,16,58,23.80
2011,07,06,16,59,23.80
2011,07,06,17,00,23.80
2011,07,06,17,01,23.70
2011,07,06,17,02,23.70
2011,07,06,17,03,23.70
2011,07,06,17,04,23.70
2011,07,06,17,05,23.70
2011,07,06,17,06,23.70
2011,07,06,17,07,23.70
2011,07,06,17,08,23.70
2011,07,06,17,09,23.80
2011,07,06,17,10,23.70
2011,07,06,17,11,23.80
2011,07,06,17,12,23.80
2011,07,06,17,13,23.80
2011,07,06,17,14,23.80
2011,07,06,17,15,23.80
2011,07,06,17,16,23.80
2011,07,06,17,17,23.80
2011,07,06,17,18,23.80
2011,07,06,17,19,23.90
2011,07,06,17,20,24.00
2011,07,06,17,21,24.10